309  
NZUS93 KARX 230410  
HRRWXR  
 
CURRENT HOURLY OBSERVATIONS ACROSS  
MUCH OF THE UPPER MISSISSIPPI VALLEY  
NATIONAL WEATHER SERVICE LA CROSSE WI  
1000 PM CST THU FEB 22 2024  
 
   
..SOUTHEAST MINNESOTA
 
 
 
CITY SKY/WX TMP DP RH WIND PRES REMARKS  
ROCHESTER CLEAR 33 29 85 NW15 29.79S WCI 23  
WINONA CLEAR 37 30 75 NW8G17 29.79R WCI 31  
AUSTIN CLEAR 36 30 80 NW10 29.81F WCI 28  
ALBERT LEA CLEAR 34 30 86 W6 29.83S WCI 29  
DODGE CENTER CLEAR 34 30 86 W12 29.80S WCI 25  
PRESTON CLEAR 34 32 93 NW15 29.78S WCI 24  
OWATONNA CLEAR 30 28 93 W6 29.82S WCI 24  
FARIBAULT CLEAR 36 30 80 W8 29.81F WCI 29  

 
   
..ELSEWHERE IN MINNESOTA
 
 
 
CITY SKY/WX TMP DP RH WIND PRES REMARKS  
MINNEAPOLIS PTCLDY 36 28 73 W7 29.80F WCI 30  
INTNL FALLS CLOUDY 30 20 66 N15G24 29.72R WCI 19  
DULUTH PTCLDY 36 23 59 NW13G22 29.66F WCI 27  
RED WING NOT AVBL  
REDWOOD FALLS CLEAR 36 31 82 W12 29.84F WCI 28  
MANKATO CLEAR 35 29 78 W8 29.84F WCI 29  
WORTHINGTON CLEAR 34 32 92 W12 29.88F WCI 25  
FAIRMONT CLEAR 35 29 78 W13 29.86F WCI 26  

 
   
..SOUTHWEST WISCONSIN
 
 
 
CITY SKY/WX TMP DP RH WIND PRES REMARKS  
LA CROSSE CLEAR 40 31 70 NW13 29.76R WCI 32  
PRAIRIE DU CHI CLEAR 40 32 73 NW12G21 29.77S WCI 33  
BOSCOBEL CLEAR 44 34 67 W3 29.75R  
LONE ROCK CLEAR 45 33 63 W13 29.71R  
PLATTEVILLE CLEAR 42 21 43 W13G18 29.73S  
FORT MC COY CLEAR 40 34 78 W3 29.71S  
CAMP DOUGLAS CLEAR 37 28 69 W8 29.68S WCI 30  
MAUSTON-NEW LI CLEAR 42 32 68 W8 29.69S  
WIS DELLS CLEAR 45 33 61 NW9 29.69S  

 
   
..ELSEWHERE IN WISCONSIN
 
 
 
CITY SKY/WX TMP DP RH WIND PRES REMARKS  
MILWAUKEE CLEAR 47 28 47 VRB3 29.63S  
MADISON CLEAR 46 28 49 NW8 29.67R  
GREEN BAY CLEAR 42 31 64 W8 29.62R  
EAU CLAIRE FLURRIES 38 28 67 W8 29.74S WCI 32  
BLACK RVR FLS CLEAR 41 32 70 W9 29.73R  
MEDFORD CLEAR 37 23 57 W8 29.67R WCI 31  
WAUSAU CLEAR 39 29 67 W8 29.64R WCI 33  
WIS RAPIDS CLEAR 41 30 65 W7 29.69R  
MARSHFIELD CLEAR 38 29 70 NW12 29.67S WCI 30  
RICE LAKE CLEAR 37 25 63 W8 29.74S WCI 30  

 
   
..NORTHEAST IOWA
 
 
 
CITY SKY/WX TMP DP RH WIND PRES REMARKS  
WATERLOO CLEAR 40 29 64 NW17G26 29.82S WCI 31  
DUBUQUE CLEAR 42 30 62 NW15 29.74S  
DECORAH CLEAR 36 32 87 NW6 29.77S WCI 31  
MASON CITY CLEAR 34 28 79 NW13 29.85S WCI 25  
CHARLES CITY CLEAR 36 32 87 NW14 29.81S WCI 27  
OELWEIN CLEAR 37 28 70 NW16 29.80S WCI 28  

 
   
..ELSEWHERE IN IOWA
 
 
 
CITY SKY/WX TMP DP RH WIND PRES REMARKS  
DES MOINES CLEAR 46 31 55 NW12 29.87S  
IOWA CITY CLEAR 47 31 53 NW17G25 29.82R  
FORT DODGE CLEAR 38 28 67 N12 29.88F WCI 30  
MARSHALLTOWN CLEAR 35 27 72 NW12 29.84R WCI 27  
CEDAR RAPIDS CLEAR 40 30 67 NW13 29.79S WCI 32  

 
   
..NORTHERN ILLINOIS
 
 
 
CITY SKY/WX TMP DP RH WIND PRES REMARKS  
CHICAGO-OHARE PTCLDY 50 29 44 SW7 29.65F  
CHICAGO-MIDWAY CLEAR 48 30 49 W7 29.66F  
MOLINE CLEAR 50 30 46 NW17G24 29.74S  
ROCKFORD CLEAR 49 31 49 W13 29.70R  
PEORIA CLEAR 49 33 54 W5 29.73F  

 
 
NOTE: "FAIR" INDICATES FEW OR NO CLOUDS BELOW 12,000 FEET WITH NO  
SIGNIFICANT WEATHER AND/OR OBSTRUCTIONS TO VISIBILITY. WIND  
SPEEDS ARE IN MILES-PER-HOUR.  
 
 
CLICK HERE TO GO TO PREVIOUS BULLETINS.

The Nexlab WI Page
The Nexlab IA Page
The Nexlab MN Page Main Text Page